Mombasa, Kenya

11:38 PM EAT on July 25, 2017 (GMT +0300)
Mombasa

Weather History for HKMO - August, 2013

Change the Weather History Date:

Monday, August 5, 2013

  Actual Average Record
Temperature  
Mean Temperature 73 °F -  
Max Temperature 80 °F 84 °F 86 °F (2012)
Min Temperature 66 °F 67 °F 66 °F (2003)
Cooling Degree Days 8    
Growing Degree Days 23 (Base 50)    
Moisture  
Dew Point 69 °F    
Average Humidity 85    
Maximum Humidity 100    
Minimum Humidity 65    
Precipitation  
Precipitation 0.03 in 0.09 in - ()
Sea Level Pressure  
Sea Level Pressure 30.04 in    
Wind  
Wind Speed 7 mph ()    
Max Wind Speed 40 mph    
Max Gust Speed -    
Visibility 7.6 miles    
Events      
Averages and records for this station are not official NWS values.
T = Trace of Precipitation, MM = Missing Value Source: Averaged Metar Reports

Daily Weather History Graph

Daily Weather History Graph

Search for Another Location

Airport or City:

Trip Planner

Search our weather history database for the weather conditions in past years. The results will help you decide how hot, cold, wet, or windy it might be!

Date:

Astronomy

Aug. 05, 2013 Rise Set
Actual Time 6:28 AM EAT 6:26 PM EAT
Civil Twilight 6:07 AM EAT 6:47 PM EAT
Nautical Twilight 5:42 AM EAT 7:12 PM EAT
Astronomical Twilight 5:17 AM EAT 7:37 PM EAT
Moon 5:05 AM EAT (8/5) 5:17 PM EAT (8/5)
Length of Visible Light 12h 40m
Length of Day
11h 57m
Waning Crescent, 2% of the Moon is Illuminated
Aug 5
Waning Crescent
Aug 7
New
Aug 14
First Quarter
Aug 21
Full
Aug 28
Last Quarter

Hourly Weather History & Observations

Time (EAT) Temp. Heat Index Dew Point Humidity Pressure Visibility Wind Dir Wind Speed Gust Speed Precip Events Conditions
1:00 AM 69.8 °F - 66.2 °F 88% 30.04 in 6.2 mi SW 5.8 mph - N/A   Partly Cloudy
3:00 AM 67 °F - 67 °F 100% 30.01 in 19 mi SSW 6.9 mph - -   Scattered Clouds
5:00 AM 68.0 °F - 66.2 °F 94% 30.01 in 6.2 mi SSW 4.6 mph - N/A   Partly Cloudy
6:00 AM 68.0 °F - 66.2 °F 94% 30.04 in 6.2 mi SSW 3.5 mph - N/A   Partly Cloudy
7:00 AM 68.0 °F - 66.2 °F 94% 30.04 in 6.2 mi SW 3.5 mph - N/A   Partly Cloudy
8:00 AM 71.6 °F - 69.8 °F 94% 30.06 in 6.2 mi SW 5.8 mph - N/A   Partly Cloudy
9:00 AM 74 °F - 69 °F 81% 30.09 in 19 mi SSW 6.9 mph - -   Mostly Cloudy
9:00 AM 73.4 °F - 69.8 °F 88% 30.09 in 6.2 mi SSW 6.9 mph - N/A   Mostly Cloudy
10:00 AM 73.4 °F - 66.2 °F 78% 30.09 in 6.2 mi SE 9.2 mph - N/A   Mostly Cloudy
10:30 AM 77.0 °F - 71.6 °F 83% 30.09 in 6.2 mi South 12.7 mph - N/A   Scattered Clouds
12:00 PM 80.6 °F 83.2 °F 68.0 °F 65% 30.06 in 6.2 mi SSW 15.0 mph - N/A   Mostly Cloudy
12:30 PM 80.6 °F 83.2 °F 68.0 °F 65% 30.06 in 6.2 mi South 11.5 mph - N/A   Mostly Cloudy
2:00 PM 77.0 °F - 68.0 °F 74% 30.04 in 6.2 mi SSE 9.2 mph - N/A   Mostly Cloudy
3:00 PM - - 70 °F % 30.00 in 1 mi NNE 40.3 mph - -  
3:00 PM 75.2 °F - 69.8 °F 83% 30.01 in 6.2 mi SSW 10.4 mph - N/A   Mostly Cloudy
4:00 PM 73.4 °F - 71.6 °F 94% 29.98 in 6.2 mi WSW 11.5 mph - N/A   Mostly Cloudy
5:00 PM 73.4 °F - 71.6 °F 94% 29.98 in 6.2 mi Calm Calm - N/A   Mostly Cloudy
6:00 PM 75.2 °F - 69.8 °F 83% 30.01 in 6.2 mi South 5.8 mph - N/A   Mostly Cloudy
7:00 PM 75.2 °F - 69.8 °F 83% 30.01 in 6.2 mi South 3.5 mph - N/A   Mostly Cloudy
8:00 PM 73.4 °F - 68.0 °F 83% 30.01 in 6.2 mi SSE 5.8 mph - N/A   Partly Cloudy
9:00 PM 73 °F - 68 °F 79% 30.03 in 19 mi SSE 3.5 mph - -   Scattered Clouds
9:00 PM 73.4 °F - 68.0 °F 83% 30.04 in 6.2 mi SSE 3.5 mph - N/A   Partly Cloudy
10:00 PM 71.6 °F - 68.0 °F 88% 30.04 in 6.2 mi SSW 3.5 mph - N/A   Partly Cloudy